Waarnemingen

Advertentie
Mijn weer
Charleroi/Gosselies, België (6449): temperatuur & dauwpunt: 13.08.2019 16:00:00 - 19.08.2019 16:00:00 (CEST)Charleroi/Gosselies, België (6449): windsnelheid & windstoten: 13.08.2019 16:00:00 - 19.08.2019 16:00:00 (CEST)Charleroi/Gosselies, België (6449): windrichting: 13.08.2019 16:00:00 - 19.08.2019 16:00:00 (CEST)Charleroi/Gosselies, België (6449): luchtdruk: 13.08.2019 16:00:00 - 19.08.2019 16:00:00 (CEST)Charleroi/Gosselies, België (6449): zicht: 13.08.2019 16:00:00 - 19.08.2019 16:00:00 (CEST)
Datum & Tijd tt [°C] td [°C] ff [km/u] ff [kn] fx [km/u] fx [kn] dd ppp [hPa] vv [km]
19.08.2019 16:00:00 21,1 9,6 26 14 43 23 WZW 1017,7 10
19.08.2019 15:00:00 20,4 9,1 24 13 40 21 ZW 1017,8 10
19.08.2019 14:00:00 18,8 9,2 24 13 - - ZW 1017,7 10
19.08.2019 13:00:00 17,8 9,5 24 13 36 19 WZW 1017,5 10
19.08.2019 12:00:00 18,7 8,8 22 12 36 19 ZW 1017,0 10
19.08.2019 11:00:00 17,8 10,8 22 12 - - ZW 1016,8 10
19.08.2019 10:00:00 16,0 11,7 22 12 29 16 ZW 1016,5 10
19.08.2019 09:00:00 14,1 11,0 21 11 29 16 ZW 1016,5 10
19.08.2019 08:00:00 12,7 10,4 21 11 - - ZZW 1016,3 10
19.08.2019 07:00:00 11,8 10,1 15 8 22 12 ZZW 1015,8 10
19.08.2019 06:00:00 11,9 9,8 15 8 22 12 ZZW 1015,2 10
19.08.2019 05:00:00 11,9 9,7 13 7 - - ZZW 1014,9 10
19.08.2019 04:00:00 12,1 10,6 13 7 18 10 ZZW 1014,7 10
19.08.2019 03:00:00 12,2 10,7 11 6 18 10 ZZW 1014,5 10
19.08.2019 02:00:00 12,6 10,8 13 7 - - ZZW 1014,4 10
19.08.2019 01:00:00 13,8 10,4 13 7 18 10 ZW 1013,3 10
19.08.2019 00:00:00 13,9 10,6 11 6 14 8 ZW 1012,8 10
18.08.2019 23:00:00 14,8 10,5 9 5 - - ZZW 1012,4 10
18.08.2019 22:00:00 15,2 10,0 11 6 25 14 WZW 1011,9 10
18.08.2019 21:00:00 16,1 9,7 15 8 36 19 W 1011,2 10
18.08.2019 20:00:00 18,8 10,7 21 11 - - WZW 1010,2 10
18.08.2019 19:00:00 19,5 13,0 22 12 36 19 WZW 1009,5 10
18.08.2019 18:00:00 19,8 14,7 16 9 36 19 WZW 1009,1 10
18.08.2019 17:00:00 18,8 15,2 21 11 - - ZW 1009,1 10
18.08.2019 16:00:00 18,0 15,1 21 11 32 18 WZW 1008,5 10
18.08.2019 15:00:00 17,3 15,6 21 11 32 18 WZW 1007,5 10
18.08.2019 14:00:00 16,3 15,6 16 9 - - WZW 1006,7 3,0
18.08.2019 13:00:00 17,1 16,0 18 10 29 16 ZW 1005,7 10
18.08.2019 12:00:00 15,9 15,3 13 7 22 12 ZW 1005,1 10
18.08.2019 11:00:00 14,4 13,9 11 6 - - NW 1004,8 2,2
18.08.2019 10:00:00 14,3 13,8 11 6 18 10 OZO 1003,9 2,9
18.08.2019 09:00:00 14,4 13,9 9 5 14 8 O 1004,4 5
18.08.2019 08:00:00 14,2 13,7 2 1 - - - 1005,5 3,0
18.08.2019 07:00:00 14,5 13,7 4 2 11 6 NW 1006,5 4,0
18.08.2019 06:00:00 14,4 13,8 9 5 14 8 ZZO 1006,8 10
18.08.2019 05:00:00 14,4 13,6 8 4 - - ZZO 1007,3 10
18.08.2019 04:00:00 14,4 13,7 9 5 14 8 Z 1008,2 10
18.08.2019 03:00:00 14,5 13,9 5 3 14 8 Z 1008,3 10
18.08.2019 02:00:00 14,7 14,1 8 4 - - Z 1008,8 8
18.08.2019 01:00:00 14,7 14,1 11 6 14 8 WZW 1008,9 8
18.08.2019 00:00:00 14,8 14,1 9 5 22 12 ZZW 1008,6 4,0
17.08.2019 23:00:00 15,2 14,6 13 7 - - W 1008,9 3,0
17.08.2019 22:00:00 16,8 16,2 9 5 22 12 ZW 1008,6 10
17.08.2019 21:00:00 16,8 16,3 13 7 29 16 WZW 1008,6 2,0
17.08.2019 20:00:00 18,3 17,3 15 8 - - ZZW 1008,5 10
17.08.2019 19:00:00 18,3 17,2 21 11 36 19 Z 1008,6 10
17.08.2019 18:00:00 18,2 17,2 22 12 32 18 ZZW 1008,8 10
17.08.2019 17:00:00 17,8 17,1 18 10 - - ZZW 1009,0 4,5
17.08.2019 16:00:00 17,8 16,9 21 11 36 19 ZZW 1008,8 10
17.08.2019 15:00:00 17,7 16,9 21 11 32 18 Z 1008,7 10
17.08.2019 14:00:00 17,1 16,5 22 12 - - ZZW 1009,4 3,0
17.08.2019 13:00:00 17,1 16,1 18 10 32 18 ZZW 1009,5 5
17.08.2019 12:00:00 16,7 15,9 21 11 36 19 ZZW 1009,7 9
17.08.2019 11:00:00 16,2 15,6 21 11 - - ZZW 1009,6 3,0
17.08.2019 10:00:00 15,9 15,1 22 12 36 19 ZZW 1009,6 10
17.08.2019 09:00:00 15,4 14,9 22 12 32 18 ZZW 1009,6 3,5
17.08.2019 08:00:00 15,1 14,5 18 10 - - ZZW 1009,3 3,5
17.08.2019 07:00:00 15,5 14,2 21 11 43 23 ZW 1009,3 5
17.08.2019 06:00:00 18,0 12,4 24 13 32 18 ZZW 1008,7 10
17.08.2019 05:00:00 17,6 13,1 21 11 - - ZZW 1009,0 10
17.08.2019 04:00:00 18,1 12,7 22 12 32 18 ZZW 1009,1 10
17.08.2019 03:00:00 17,7 12,9 16 9 22 12 Z 1009,9 10
17.08.2019 02:00:00 17,3 13,2 11 6 - - Z 1010,5 10
17.08.2019 01:00:00 18,6 12,1 13 7 18 10 Z 1010,9 10
17.08.2019 00:00:00 18,8 12,2 9 5 14 8 Z 1011,4 10
16.08.2019 23:00:00 18,8 12,4 8 4 - - ZZO 1011,8 10
16.08.2019 22:00:00 19,5 11,9 9 5 14 8 Z 1012,6 10
16.08.2019 21:00:00 20,1 11,4 11 6 25 14 Z 1012,3 10
16.08.2019 20:00:00 20,6 11,1 13 7 - - ZZW 1012,6 10
16.08.2019 19:00:00 21,3 11,2 16 9 32 18 ZZW 1013,4 10
16.08.2019 18:00:00 21,6 10,5 18 10 40 21 ZZW 1013,6 10
16.08.2019 17:00:00 22,5 10,8 21 11 - - ZZW 1014,3 10
16.08.2019 16:00:00 21,0 10,5 22 12 36 19 ZW 1015,4 10
16.08.2019 15:00:00 20,9 10,9 24 13 36 19 ZW 1016,2 10
16.08.2019 14:00:00 20,4 10,7 18 10 - - ZZW 1016,6 10
16.08.2019 13:00:00 19,1 11,7 21 11 32 18 ZZW 1017,0 10
16.08.2019 12:00:00 18,8 12,1 16 9 29 16 ZZW 1017,8 10
16.08.2019 11:00:00 17,3 12,6 18 10 - - ZW 1018,3 10
16.08.2019 10:00:00 15,6 12,8 16 9 22 12 ZW 1018,5 10
16.08.2019 09:00:00 14,5 12,8 13 7 22 12 ZZW 1018,6 10
16.08.2019 08:00:00 14,1 12,9 13 7 - - ZW 1018,5 8
16.08.2019 07:00:00 13,9 12,8 15 8 22 12 ZW 1018,7 8
16.08.2019 06:00:00 14,1 12,9 13 7 22 12 ZW 1018,5 10
16.08.2019 05:00:00 14,1 12,9 16 9 - - ZW 1018,5 10
16.08.2019 04:00:00 13,8 12,5 16 9 25 14 ZW 1018,7 10
16.08.2019 03:00:00 13,4 12,2 16 9 25 14 ZW 1018,5 10
16.08.2019 02:00:00 13,6 12,1 18 10 - - ZZW 1018,4 10
16.08.2019 01:00:00 14,4 12,1 15 8 22 12 ZW 1018,3 10
16.08.2019 00:00:00 15,1 12,3 16 9 25 14 WZW 1018,4 10
15.08.2019 23:00:00 16,1 12,4 16 9 - - WZW 1018,1 10
15.08.2019 22:00:00 17,0 12,1 16 9 29 16 WZW 1017,3 10
15.08.2019 21:00:00 17,8 11,6 16 9 32 18 WZW 1016,2 10
15.08.2019 20:00:00 18,8 11,6 16 9 - - W 1015,4 10
15.08.2019 19:00:00 19,7 11,6 15 8 40 21 W 1014,6 10
15.08.2019 18:00:00 19,4 11,4 21 11 43 23 WZW 1014,2 10
15.08.2019 17:00:00 19,2 11,4 18 10 - - W 1013,7 10
15.08.2019 16:00:00 19,3 11,8 29 16 47 25 WZW 1013,2 10
15.08.2019 15:00:00 19,5 12,3 21 11 50 27 W 1012,7 10
15.08.2019 14:00:00 18,5 13,9 15 8 - - WZW 1012,5 10
15.08.2019 13:00:00 17,2 14,7 26 14 43 23 WZW 1012,3 10
15.08.2019 12:00:00 18,3 13,7 26 14 43 23 WZW 1011,8 10
15.08.2019 11:00:00 16,9 15,0 26 14 - - WZW 1011,6 10
15.08.2019 10:00:00 15,8 14,7 24 13 40 21 ZW 1011,4 10
15.08.2019 09:00:00 16,3 14,7 22 12 40 21 ZW 1011,0 10
15.08.2019 08:00:00 15,8 14,5 21 11 - - ZW 1010,9 10
15.08.2019 07:00:00 15,3 14,4 18 10 32 18 ZW 1010,7 10
15.08.2019 06:00:00 15,4 14,4 18 10 32 18 ZW 1010,4 10
15.08.2019 05:00:00 15,2 14,3 22 12 - - ZZW 1010,7 5
15.08.2019 04:00:00 15,1 14,3 18 10 36 19 ZZW 1011,2 3,5
15.08.2019 03:00:00 15,1 14,1 22 12 40 21 ZZW 1011,7 10
15.08.2019 02:00:00 14,9 14,2 22 12 - - ZZW 1012,3 3,5
15.08.2019 01:00:00 15,9 13,9 15 8 22 12 ZZW 1012,7 10
15.08.2019 00:00:00 15,9 14,1 11 6 29 16 Z 1012,7 10
14.08.2019 23:00:00 16,5 13,9 18 10 - - ZW 1013,2 10
14.08.2019 22:00:00 16,5 14,7 9 5 14 8 ZZO 1013,3 10
14.08.2019 21:00:00 17,2 13,6 9 5 18 10 Z 1013,6 10
14.08.2019 20:00:00 19,3 11,4 11 6 - - ZZO 1013,6 10
14.08.2019 19:00:00 19,9 11,1 18 10 29 16 ZW 1014,5 10
14.08.2019 18:00:00 20,3 10,8 13 7 29 16 Z 1015,2 10
14.08.2019 17:00:00 19,8 10,7 18 10 - - ZW 1016,0 10
14.08.2019 16:00:00 20,4 10,1 18 10 32 18 ZZW 1016,5 10
14.08.2019 15:00:00 20,6 10,2 18 10 32 18 ZW 1017,1 10
14.08.2019 14:00:00 19,2 9,2 21 11 - - ZW 1017,7 10
14.08.2019 13:00:00 19,4 10,3 15 8 29 16 ZZW 1018,2 10
14.08.2019 12:00:00 18,0 11,3 16 9 22 12 ZW 1018,9 10
14.08.2019 11:00:00 14,7 11,8 11 6 - - Z 1019,5 10
14.08.2019 10:00:00 12,4 11,4 15 8 22 12 Z 1019,9 9
14.08.2019 09:00:00 11,4 10,9 11 6 14 8 Z 1019,9 2,4
14.08.2019 08:00:00 10,4 10,0 8 4 - - Z 1020,0 0,3
14.08.2019 07:00:00 9,8 9,6 9 5 14 8 ZZW 1019,9 1,4
14.08.2019 06:00:00 9,9 9,8 5 3 14 8 ZW 1019,7 1,6
14.08.2019 05:00:00 10,4 9,9 8 4 - - ZZW 1019,8 10
14.08.2019 04:00:00 10,9 10,3 11 6 14 8 ZW 1019,8 10
14.08.2019 03:00:00 11,1 10,5 11 6 14 8 ZW 1019,9 10
14.08.2019 02:00:00 12,0 11,0 11 6 - - ZW - 10
14.08.2019 01:00:00 12,0 11,0 11 6 - - ZW - 10
14.08.2019 00:00:00 12,6 10,9 11 6 18 10 ZZW 1019,9 10
13.08.2019 23:00:00 12,8 10,6 13 7 - - ZZW 1020,1 10
13.08.2019 22:00:00 13,7 10,7 13 7 25 14 ZW 1019,8 10
13.08.2019 21:00:00 14,6 10,3 18 10 25 14 WZW 1019,4 10
13.08.2019 20:00:00 15,4 9,2 18 10 - - WZW 1019,0 10
13.08.2019 19:00:00 15,9 8,7 21 11 32 18 ZW 1018,8 10
13.08.2019 18:00:00 15,9 9,7 18 10 32 18 WZW 1019,1 10
13.08.2019 17:00:00 14,9 10,4 22 12 - - WZW 1019,2 10
13.08.2019 16:00:00 14,2 11,7 21 11 32 18 ZW 1019,7 10

tt = temperatuur
td = dauwpunt
ff = windsnelheid
fx = windstoten
dd = windrichting
ppp = luchtdruk
vv = zicht

Weerstations in de omgeving